This is the latest recevied weather packets stored in our database for station/object N9BSW. If no packets are shown the sender has not sent any weather packets the latest 10 day(s).
| Time | Temp. | Humidity | Pressure | Rain* | Wind** | Luminosity | Snow |
|---|---|---|---|---|---|---|---|
| 1777996461 | 16.67° C | 85% | 1008.7 hPa | 0 mm | - | 196 W/m² | - |
| 1777996158 | 16.67° C | 85% | 1008.7 hPa | 0 mm | - | 166 W/m² | - |
| 1777995854 | 16.67° C | 85% | 1009.1 hPa | 0 mm | - | 163 W/m² | - |
| 1777995550 | 16.67° C | 84% | 1008.6 hPa | 0 mm | - | 171 W/m² | - |
| 1777995248 | 16.67° C | 86% | 1008.6 hPa | 0 mm | - | 186 W/m² | - |
| 1777994944 | 16.67° C | 84% | 1008.8 hPa | 0 mm | - | 188 W/m² | - |
| 1777994642 | 16.67° C | 85% | 1008.6 hPa | 0 mm | - | 176 W/m² | - |
| 1777994341 | 16.67° C | 86% | 1008.6 hPa | 0 mm | - | 167 W/m² | - |
| 1777994038 | 16.67° C | 87% | 1008.6 hPa | 0 mm | - | 170 W/m² | - |
| 1777993736 | 16.67° C | 85% | 1008.6 hPa | 0 mm | - | 145 W/m² | - |
| 1777993433 | 16.67° C | 86% | 1008.6 hPa | 0 mm | - | 199 W/m² | - |
| 1777993132 | 16.67° C | 88% | 1008.6 hPa | 0 mm | - | 173 W/m² | - |
| 1777992831 | 16.67° C | 88% | 1008.6 hPa | 0 mm | - | 191 W/m² | - |
| 1777992528 | 16.67° C | 88% | 1008.4 hPa | 0 mm | - | 221 W/m² | - |
| 1777992227 | 16.11° C | 88% | 1008.6 hPa | 0 mm | - | 218 W/m² | - |
| 1777991923 | 16.11° C | 89% | 1008.4 hPa | 0 mm | - | 189 W/m² | - |
| 1777991621 | 15.56° C | 89% | 1008.4 hPa | 0 mm | - | 152 W/m² | - |
| 1777991318 | 15.56° C | 90% | 1008.4 hPa | 0 mm | - | 131 W/m² | - |
| 1777991015 | 15.56° C | 89% | 1008.4 hPa | 0 mm | - | 115 W/m² | - |
| 1777990712 | 15.56° C | 89% | 1008.6 hPa | 0 mm | - | 91 W/m² | - |
| 1777990410 | 16.11° C | 89% | 1008.3 hPa | 0 mm | - | 97 W/m² | - |
| 1777989803 | 16.11° C | 88% | 1008.3 hPa | 0 mm | - | 137 W/m² | - |
| 1777989500 | 15.56° C | 90% | 1008.1 hPa | 0 mm | - | 168 W/m² | - |
| 1777989196 | 15.56° C | 89% | 1008.2 hPa | 0 mm | - | 181 W/m² | - |
| 1777988892 | 15.56° C | 89% | 1008.3 hPa | 0 mm | - | 167 W/m² | - |
* Rain latest hour (hover to see other rain measurements)
** Current wind speed in m/s (hover to see current wind gust speed)